OK1UDZ-5 Weather Reports


time (UTC)temp
F
wind
direction
speed
knots
gust
knots
rain 1hr
in
rain 24hr
in
rain mn
in
humidity
%
barometer
mb
20260905183118 0 45 0.0 0.0 0.00 0.18 0.18 1020.9
20260905182256 0 45 0.0 0.0 0.00 0.18 0.18 1020.8
20260905181447 0 45 0.0 0.0 0.00 0.18 0.18 1020.7
20260905180634 0 45 0.0 0.0 0.00 0.18 0.18 1020.5
20260905175826 0 45 0.0 0.0 0.00 0.18 0.18 1020.3
20260905175020 0 45 0.0 0.0 0.00 0.18 0.18 1020.1
20260905174216 0 45 0.0 0.0 0.00 0.18 0.18 1020.0
20260905173412 0 45 0.0 0.0 0.00 0.18 0.18 1019.7
20260905172611 0 135 0.0 0.0 0.00 0.18 0.18 1019.5
20260905171806 0 45 0.0 0.0 0.00 0.18 0.18 1019.3
20260905170957 0 180 0.0 0.0 0.00 0.18 0.18 1019.2
20260905170153 0 180 0.0 0.0 0.00 0.18 0.18 1019.1
20260905165347 0 45 0.0 0.0 0.00 0.18 0.18 1018.9
20260905164544 0 45 0.0 0.0 0.00 0.18 0.18 1018.7
20260905163734 0 45 0.0 0.0 0.00 0.18 0.18 1018.6
20260905162921 0 45 0.0 0.0 0.00 0.18 0.18 1018.5
20260905162114 0 45 0.0 0.0 0.00 0.18 0.18 1018.2
20260905161309 0 45 0.0 0.0 0.00 0.18 0.18 1018.1
20260905160504 0 45 0.0 0.0 0.00 0.18 0.18 1017.9
20260905155658 0 90 0.0 0.0 0.00 0.18 0.18 1017.5
20260905154855 0 180 0.0 0.0 0.00 0.18 0.18 1017.6
20260905154055 0 45 0.0 0.0 0.00 0.18 0.18 1017.5
20260905153250 0 203 0.0 0.0 0.00 0.18 0.18 1017.7
20260905152445 0 45 0.0 0.0 0.00 0.18 0.18 1017.7
20260905151643 0 45 0.0 0.0 0.00 0.18 0.18 1017.7
20260905150832 0 45 0.0 0.0 0.00 0.18 0.18 1017.5
20260905150031 0 248 0.0 0.0 0.00 0.18 0.18 1017.3
20260905145231 0 248 0.0 0.0 0.00 0.18 0.18 1017.5
20260905144425 0 90 0.0 0.0 0.00 0.18 0.18 1017.6
20260905143621 0 90 0.0 0.0 0.00 0.18 0.18 1017.5
20260905142814 0 90 0.0 0.0 0.00 0.18 0.18 1017.6
20260905142012 0 45 0.0 0.0 0.00 0.18 0.18 1017.8
20260905141201 0 180 0.0 0.0 0.00 0.18 0.18 1017.7
20260905140355 0 180 0.0 0.0 0.00 0.18 0.18 1017.5
20260905135553 0 180 0.0 0.0 0.00 0.18 0.18 1017.3
20260905134749 0 203 0.0 0.0 0.00 0.18 0.18 1017.5
20260905133944 0 248 0.0 0.0 0.00 0.18 0.18 1017.6
20260905133142 0 248 0.0 0.0 0.00 0.18 0.18 1016.6
20260905132338 0 248 0.0 0.0 0.00 0.18 0.18 1017.0
20260905131536 0 203 0.0 0.0 0.00 0.18 0.18 1017.4
20260905130734 0 203 0.0 0.0 0.00 0.18 0.18 1018.0
20260905125932 0 203 0.0 0.0 0.00 0.18 0.18 1018.0
20260905125130 0 248 0.0 0.0 0.00 0.18 0.18 1018.0
20260905124326 0 45 0.0 0.0 0.00 0.18 0.18 1017.6
20260905123524 0 45 0.0 0.0 0.00 0.18 0.18 1017.7
20260905122722 0 135 0.0 0.0 0.00 0.18 0.18 1018.1
20260905121921 0 135 0.0 0.0 0.00 0.18 0.18 1017.6
20260905121119 0 248 0.0 0.0 0.00 0.18 0.18 1018.4
20260905120312 0 203 0.0 0.0 0.00 0.18 0.18 1017.8
20260905115504 0 203 0.0 0.0 0.00 0.18 0.18 1017.2
20260905114658 0 248 0.0 0.0 0.00 0.18 0.18 1018.0
20260905113853 0 45 0.0 0.0 0.00 0.18 0.18 1017.8
20260905113046 0 248 0.0 0.0 0.00 0.18 0.18 1018.4
20260905112237 0 180 0.0 0.0 0.00 0.18 0.18 1018.0
20260905111430 0 248 0.0 0.0 0.00 0.18 0.18 1017.8
20260905110625 0 248 0.0 0.0 0.00 0.18 0.18 1018.0
20260905105820 0 45 0.0 0.0 0.00 0.18 0.18 1018.3
20260905105015 0 45 0.0 0.0 0.00 0.18 0.18 1018.4
20260905104211 0 45 0.0 0.0 0.00 0.18 0.18 1018.4
20260905103412 0 180 0.0 0.0 0.00 0.18 0.18 1018.1
20260905102609 0 338 0.0 0.0 0.00 0.18 0.18 1018.1
20260905101809 0 248 0.0 0.0 0.00 0.18 0.18 1018.4
20260905101008 0 248 0.0 0.0 0.00 0.18 0.18 1018.2
20260905100202 0 248 0.0 0.0 0.00 0.18 0.18 1018.4
20260905095401 0 180 0.0 0.0 0.00 0.16 0.16 1018.6
20260905094559 0 248 0.0 0.0 0.00 0.16 0.16 1018.7
20260905093758 0 248 0.0 0.0 0.00 0.16 0.16 1018.7
20260905092957 0 248 0.0 0.0 0.00 0.16 0.16 1018.7
20260905092154 0 248 0.0 0.0 0.00 0.16 0.16 1018.8
20260905091349 0 248 0.0 0.0 0.00 0.16 0.16 1018.7
20260905090548 0 248 0.0 0.0 0.00 0.16 0.16 1018.7
20260905085746 0 248 0.0 0.0 0.00 0.16 0.16 1018.7
20260905084944 0 248 0.0 0.0 0.00 0.16 0.16 1018.8
20260905084143 0 248 0.0 0.0 0.00 0.16 0.16 1018.6
20260905083341 0 248 0.0 0.0 0.00 0.16 0.16 1018.7
20260905082539 0 203 0.0 0.0 0.00 0.16 0.16 1018.5
20260905081738 0 180 0.0 0.0 0.00 0.16 0.16 1018.8
20260905080936 0 180 0.0 0.0 0.00 0.16 0.16 1018.8
20260905080134 0 248 0.0 0.0 0.00 0.16 0.16 1018.8
20260905075333 0 248 0.0 0.0 0.00 0.16 0.16 1018.7
20260905074529 0 135 0.0 0.0 0.00 0.16 0.16 1018.5
20260905073725 0 135 0.0 0.0 0.00 0.16 0.16 1018.5
20260905072922 0 180 0.0 0.0 0.00 0.16 0.16 1018.6
20260905072120 0 248 0.0 0.0 0.00 0.16 0.16 1018.6
20260905071320 0 248 0.0 0.0 0.00 0.16 0.16 1018.5
20260905070520 0 248 0.0 0.0 0.00 0.16 0.16 1018.6
20260905065718 0 248 0.0 0.0 0.00 0.16 0.16 1018.8
20260905064917 0 248 0.0 0.0 0.00 0.16 0.16 1018.9
20260905064116 0 248 0.0 0.0 0.00 0.16 0.16 1018.9
20260905063315 0 248 0.0 0.0 0.00 0.16 0.16 1018.9
20260905062513 0 248 0.0 0.0 0.00 0.16 0.16 1019.0
20260905061713 0 45 0.0 0.0 0.00 0.16 0.16 1018.9
20260905060910 0 180 0.0 0.0 0.00 0.16 0.16 1018.6
20260905060105 0 203 0.0 0.0 0.00 0.16 0.16 1018.6
20260905055256 0 248 0.0 0.0 0.01 0.16 0.16 1018.7
20260905054454 0 180 0.0 0.0 0.01 0.16 0.16 1018.7
20260905053653 0 180 0.0 0.0 0.01 0.16 0.16 1017.9
20260905052852 0 203 0.0 0.0 0.01 0.16 0.16 1017.4
20260905052051 0 203 0.0 0.0 0.00 0.15 0.15 1017.8
20260905051249 0 248 0.0 0.0 0.00 0.15 0.15 1018.1
20260905050448 0 248 0.0 0.0 0.00 0.15 0.15 1018.3
20260905045645 0 248 0.0 0.0 0.09 0.13 0.13 1018.2
20260905044840 0 248 0.0 0.0 0.06 0.10 0.10 1018.2
20260905044041 0 248 0.0 0.0 0.04 0.09 0.09 1018.0
20260905043233 0 90 0.0 0.0 0.01 0.06 0.06 1018.1
20260905042431 0 90 0.0 0.0 0.01 0.06 0.06 1017.8
20260905041629 0 180 0.0 0.0 0.00 0.04 0.04 1017.7
20260905040829 0 180 0.0 0.0 0.00 0.04 0.04 1017.4
20260905040029 0 45 0.0 0.0 0.00 0.04 0.04 1016.5
20260905035229 0 45 0.0 0.0 0.01 0.04 0.04 1016.6
20260905034427 0 45 0.0 0.0 0.01 0.04 0.04 1016.6
20260905033625 0 248 0.0 0.0 0.00 0.03 0.03 1017.1
20260905032826 0 248 0.0 0.0 0.00 0.03 0.03 1016.3
20260905032026 0 45 0.0 0.0 0.00 0.03 0.03 1016.0
20260905031227 0 45 0.0 0.0 0.00 0.03 0.03 1015.7
20260905030428 0 248 0.0 0.0 0.00 0.03 0.03 1016.8
20260905025626 0 45 0.0 0.0 0.00 0.03 0.03 1016.3
20260905024824 0 45 0.0 0.0 0.00 0.03 0.03 1015.9
20260905024025 0 180 0.0 0.0 0.00 0.03 0.03 1015.9
20260905023222 0 135 0.0 0.0 0.00 0.03 0.03 1016.1
20260905022417 0 45 0.0 0.0 0.00 0.03 0.03 1015.6
20260905021615 0 90 0.0 0.0 0.00 0.03 0.03 1015.8
20260905020814 0 90 0.0 0.0 0.00 0.03 0.03 1015.7
20260905020009 0 45 0.0 0.0 0.00 0.03 0.03 1015.6
20260905015204 0 45 0.0 0.0 0.00 0.03 0.03 1015.1
20260905014402 0 45 0.0 0.0 0.00 0.03 0.03 1015.1
20260905013600 0 90 0.0 0.0 0.00 0.03 0.03 1015.3
20260905012757 0 90 0.0 0.0 0.00 0.03 0.03 1015.2
20260905011954 0 45 0.0 0.0 0.00 0.03 0.03 1015.0
20260905011148 0 45 0.0 0.0 0.00 0.03 0.03 1015.1
20260905010343 0 135 0.0 0.0 0.00 0.03 0.03 1015.2
20260905005545 0 45 0.0 0.0 0.03 0.03 0.03 1015.2
20260905004743 0 45 0.0 0.0 0.01 0.01 0.01 1015.2
20260905003943 0 90 0.0 0.0 0.01 0.01 0.01 1015.1
20260905003142 0 45 0.0 0.0 0.01 0.01 0.01 1014.7
20260905002340 0 45 0.0 0.0 0.00 0.00 0.00 1014.6
20260905001538 0 45 0.0 0.0 0.00 0.00 0.00 1014.3
20260905000734 0 45 0.0 0.0 0.00 0.00 0.00 1014.2
20260904235933 0 45 0.0 0.0 0.00 0.00 0.00 1014.4
20260904235132 0 45 0.0 0.0 0.00 0.00 0.00 1013.6
20260904234334 0 90 0.0 0.0 0.00 0.00 0.00 1013.3
20260904233532 0 180 0.0 0.0 0.00 0.00 0.00 1012.7
20260904232729 0 45 0.0 0.0 0.00 0.00 0.00 1012.3
20260904231927 0 45 0.0 0.0 0.00 0.00 0.00 1011.9
20260904231123 0 315 0.0 0.0 0.00 0.00 0.00 1011.3
20260904230320 0 203 0.0 0.0 0.00 0.00 0.00 1010.9
20260904225520 0 248 0.0 0.0 0.00 0.00 0.00 1010.6
20260904224722 0 248 0.0 0.0 0.00 0.00 0.00 1011.4
20260904223923 0 248 0.0 0.0 0.00 0.00 0.00 1011.6
20260904223124 0 135 0.0 0.0 0.00 0.00 0.00 1011.7
20260904222325 0 135 0.0 0.0 0.00 0.00 0.00 1011.6
20260904221527 0 135 0.0 0.0 0.00 0.00 0.00 1011.7
20260904220725 0 135 0.0 0.0 0.00 0.00 0.00 1011.7
20260904215927 0 180 0.0 0.0 0.00 0.00 0.00 1011.6
20260904215128 0 135 0.0 0.0 0.00 0.00 0.00 1011.7
20260904214326 0 135 0.0 0.0 0.00 0.00 0.00 1011.7
20260904213527 0 135 0.0 0.0 0.00 0.00 0.00 1011.6
20260904212724 0 135 0.0 0.0 0.00 0.00 0.00 1011.6
20260904211921 0 135 0.0 0.0 0.00 0.00 0.00 1011.6
20260904211121 0 90 0.0 0.0 0.00 0.00 0.00 1011.5
20260904210318 0 90 0.0 0.0 0.00 0.00 0.00 1011.5
20260904205517 0 180 0.0 0.0 0.00 0.00 0.00 1011.5
20260904204716 0 135 0.0 0.0 0.00 0.00 0.00 1011.5
20260904203915 0 135 0.0 0.0 0.00 0.00 0.00 1011.6
20260904203108 0 180 0.0 0.0 0.00 0.00 0.00 1011.6
20260904202300 0 180 0.0 0.0 0.00 0.00 0.00 1011.6
20260904201458 0 180 0.0 0.0 0.00 0.00 0.00 1011.6
20260904200658 0 135 0.0 0.0 0.00 0.00 0.00 1011.5
20260904195857 0 45 0.0 0.0 0.00 0.00 0.00 1011.5
20260904195052 0 180 0.0 0.0 0.00 0.00 0.00 1011.6
20260904194249 0 180 0.0 0.0 0.00 0.00 0.00 1011.5
20260904193438 0 180 0.0 0.0 0.00 0.00 0.00 1011.4
20260904192634 0 180 0.0 0.0 0.00 0.00 0.00 1011.5
20260904191829 0 180 0.0 0.0 0.00 0.00 0.00 1011.4
20260904191022 0 180 0.0 0.0 0.00 0.00 0.00 1011.4
20260904190219 0 180 0.0 0.0 0.00 0.00 0.00 1011.4
20260904185417 0 135 0.0 0.0 0.00 0.00 0.00 1011.7
20260904184614 0 135 0.0 0.0 0.00 0.00 0.00 1011.7
20260904183813 0 135 0.0 0.0 0.00 0.00 0.00 1011.6